StationID,Date,MaxTemp,MinTemp,Precipitation,Snowfall,SnowDepth
"CA001108462","1970-02-01",,,,0.00,
"CA001108462","1970-02-02",,,,0.00,
"CA001108462","1970-02-03",,,,0.00,
"CA001108462","1970-02-04",,,,0.00,
"CA001108462","1970-02-05",,,,0.00,
"CA001108462","1970-02-06",,,,0.00,
"CA001108462","1970-02-07",,,,0.00,
"CA001108462","1970-02-08",,,,0.00,
"CA001108462","1970-02-09",,,,0.00,
"CA001108462","1970-02-10",,,,0.00,
"CA001108462","1970-02-11",,,,0.00,
"CA001108462","1970-02-12",,,,0.00,
"CA001108462","1970-02-13",,,,0.00,
"CA001108462","1970-02-14",,,,0.00,
"CA001108462","1970-02-15",,,,0.00,
"CA001108462","1970-02-16",,,,0.00,
"CA001108462","1970-02-17",,,,0.00,
"CA001108462","1970-02-18",,,,0.00,
"CA001108462","1970-02-19",,,,0.00,
"CA001108462","1970-02-20",44.96,,0.00,0.00,
"CA001108462","1970-02-21",59.00,33.98,0.00,0.00,
"CA001108462","1970-02-22",55.94,35.96,0.00,0.00,
"CA001108462","1970-02-23",57.02,37.94,0.00,0.00,
"CA001108462","1970-02-24",55.94,35.06,0.00,0.00,
"CA001108462","1970-02-25",55.94,35.96,0.00,0.00,
"CA001108462","1970-02-26",53.06,33.98,0.00,0.00,
"CA001108462","1970-02-27",53.96,35.06,0.00,0.00,
"CA001108462","1970-02-28",51.08,35.96,0.00,0.00,
"CA001108462","1970-03-01",48.02,30.92,0.00,0.00,
"CA001108462","1970-03-02",46.04,33.98,0.00,0.00,
"CA001108462","1970-03-03",44.06,26.96,0.00,0.00,
"CA001108462","1970-03-04",46.94,28.04,0.00,0.00,
"CA001108462","1970-03-05",51.08,32.00,38.00,0.00,
"CA001108462","1970-03-06",48.02,42.08,198.00,0.00,
"CA001108462","1970-03-07",51.08,42.08,0.00,0.00,
"CA001108462","1970-03-08",48.92,33.98,0.00,0.00,
"CA001108462","1970-03-09",51.98,32.00,0.00,0.00,
"CA001108462","1970-03-10",53.06,33.98,0.00,0.00,
"CA001108462","1970-03-11",50.00,37.04,86.00,0.00,
"CA001108462","1970-03-12",51.98,39.92,175.00,0.00,
"CA001108462","1970-03-13",57.92,44.06,71.00,0.00,
"CA001108462","1970-03-14",53.96,44.96,74.00,0.00,
"CA001108462","1970-03-15",46.94,44.06,124.00,0.00,
"CA001108462","1970-03-16",50.00,39.92,0.00,0.00,
"CA001108462","1970-03-17",50.00,33.98,0.00,0.00,
"CA001108462","1970-03-18",51.98,33.98,0.00,0.00,
"CA001108462","1970-03-19",55.04,35.06,0.00,0.00,
"CA001108462","1970-03-20",55.94,42.98,0.00,0.00,
"CA001108462","1970-03-21",51.98,39.92,0.00,0.00,
"CA001108462","1970-03-22",50.00,37.94,33.00,0.00,
"CA001108462","1970-03-23",55.04,39.02,3.00,0.00,
"CA001108462","1970-03-24",53.06,35.06,0.00,0.00,
"CA001108462","1970-03-25",51.08,37.94,0.00,0.00,
"CA001108462","1970-03-26",57.92,35.96,0.00,0.00,
"CA001108462","1970-03-27",48.92,37.94,0.00,0.00,
"CA001108462","1970-03-28",51.98,37.94,0.00,0.00,
"CA001108462","1970-03-29",57.02,35.96,0.00,0.00,
"CA001108462","1970-03-30",60.08,35.06,0.00,0.00,
"CA001108462","1970-03-31",55.04,37.94,0.00,0.00,
"CA001108462","1970-04-01",51.08,44.06,0.00,0.00,
"CA001108462","1970-04-02",55.94,37.94,0.00,0.00,
"CA001108462","1970-04-03",50.00,39.02,79.00,0.00,
"CA001108462","1970-04-04",48.02,39.02,267.00,0.00,
"CA001108462","1970-04-05",51.08,44.06,201.00,0.00,
"CA001108462","1970-04-06",51.08,41.00,0.00,0.00,
"CA001108462","1970-04-07",48.02,33.08,140.00,0.00,
"CA001108462","1970-04-08",48.92,35.06,259.00,0.00,
"CA001108462","1970-04-09",60.98,42.98,0.00,0.00,
"CA001108462","1970-04-10",55.04,39.02,0.00,0.00,
"CA001108462","1970-04-11",53.06,39.02,0.00,0.00,
"CA001108462","1970-04-12",53.06,35.06,0.00,0.00,
"CA001108462","1970-04-13",60.08,33.08,0.00,0.00,
"CA001108462","1970-04-14",60.98,41.00,0.00,0.00,
"CA001108462","1970-04-15",60.08,37.94,3.00,0.00,
"CA001108462","1970-04-16",60.98,37.94,0.00,0.00,
"CA001108462","1970-04-17",62.96,42.08,8.00,0.00,
"CA001108462","1970-04-18",46.94,44.06,155.00,0.00,
"CA001108462","1970-04-19",53.06,42.08,58.00,0.00,
"CA001108462","1970-04-20",51.08,41.00,0.00,0.00,
"CA001108462","1970-04-21",57.02,41.00,3.00,0.00,
"CA001108462","1970-04-22",53.96,44.06,91.00,0.00,
"CA001108462","1970-04-23",51.98,42.98,43.00,0.00,
"CA001108462","1970-04-24",51.98,39.92,5.00,0.00,
"CA001108462","1970-04-25",51.08,37.94,13.00,0.00,
"CA001108462","1970-04-26",51.98,35.06,0.00,0.00,
"CA001108462","1970-04-27",53.06,35.06,0.00,0.00,
"CA001108462","1970-04-28",62.06,35.96,28.00,0.00,
"CA001108462","1970-04-29",51.08,42.08,53.00,0.00,
"CA001108462","1970-04-30",55.94,44.06,0.00,0.00,
"CA001108462","1970-05-01",60.98,44.96,0.00,0.00,
"CA001108462","1970-05-02",62.06,42.98,0.00,0.00,
"CA001108462","1970-05-03",68.00,44.96,0.00,0.00,
"CA001108462","1970-05-04",62.96,46.94,0.00,0.00,
"CA001108462","1970-05-05",57.92,46.04,0.00,0.00,
"CA001108462","1970-05-06",60.98,41.00,0.00,0.00,
"CA001108462","1970-05-07",57.02,41.00,15.00,0.00,
"CA001108462","1970-05-08",53.06,46.04,71.00,0.00,
"CA001108462","1970-05-09",53.96,39.02,0.00,0.00,
"CA001108462","1970-05-10",51.98,37.94,56.00,0.00,
"CA001108462","1970-05-11",55.94,37.94,0.00,0.00,
"CA001108462","1970-05-12",55.04,39.02,0.00,0.00,
"CA001108462","1970-05-13",60.98,44.96,0.00,0.00,
"CA001108462","1970-05-14",60.98,46.04,0.00,0.00,
"CA001108462","1970-05-15",75.92,51.08,0.00,0.00,
"CA001108462","1970-05-16",66.92,50.00,48.00,0.00,
"CA001108462","1970-05-17",62.06,42.08,0.00,0.00,
"CA001108462","1970-05-18",64.94,41.00,0.00,0.00,
"CA001108462","1970-05-19",64.04,42.98,0.00,0.00,
"CA001108462","1970-05-20",64.04,44.96,0.00,0.00,
"CA001108462","1970-05-21",60.08,48.92,66.00,0.00,
"CA001108462","1970-05-22",62.06,48.92,18.00,0.00,
"CA001108462","1970-05-23",64.04,48.02,0.00,0.00,
"CA001108462","1970-05-24",71.06,48.92,0.00,0.00,
"CA001108462","1970-05-25",73.94,51.98,0.00,0.00,
"CA001108462","1970-05-26",62.06,48.02,0.00,0.00,
"CA001108462","1970-05-27",60.08,48.02,25.00,0.00,
"CA001108462","1970-05-28",57.92,46.04,61.00,0.00,
"CA001108462","1970-05-29",60.98,48.02,0.00,0.00,
"CA001108462","1970-05-30",66.02,46.04,0.00,0.00,
"CA001108462","1970-05-31",73.04,50.00,0.00,0.00,
"CA001108462","1970-06-01",84.02,55.04,0.00,0.00,
"CA001108462","1970-06-02",89.06,66.02,0.00,0.00,
"CA001108462","1970-06-03",80.96,62.06,3.00,0.00,
"CA001108462","1970-06-04",69.08,50.00,0.00,0.00,
"CA001108462","1970-06-05",78.08,51.98,0.00,0.00,
"CA001108462","1970-06-06",78.98,53.96,0.00,0.00,
"CA001108462","1970-06-07",66.92,51.08,0.00,0.00,
"CA001108462","1970-06-08",66.92,48.92,18.00,0.00,
"CA001108462","1970-06-09",57.92,48.92,64.00,0.00,
"CA001108462","1970-06-10",64.94,44.96,43.00,0.00,
"CA001108462","1970-06-11",64.04,48.02,25.00,0.00,
"CA001108462","1970-06-12",71.06,46.94,0.00,0.00,
"CA001108462","1970-06-13",73.94,55.04,0.00,0.00,
"CA001108462","1970-06-14",66.02,59.00,25.00,0.00,
"CA001108462","1970-06-15",60.08,53.06,0.00,0.00,
"CA001108462","1970-06-16",62.96,50.00,0.00,0.00,
"CA001108462","1970-06-17",69.08,51.08,0.00,0.00,
"CA001108462","1970-06-18",75.92,51.98,0.00,0.00,
"CA001108462","1970-06-19",77.00,55.94,0.00,0.00,
"CA001108462","1970-06-20",82.04,55.94,0.00,0.00,
"CA001108462","1970-06-21",80.06,60.08,0.00,0.00,
"CA001108462","1970-06-22",77.00,53.96,0.00,0.00,
"CA001108462","1970-06-23",71.96,53.96,0.00,0.00,
"CA001108462","1970-06-24",69.98,50.00,0.00,0.00,
"CA001108462","1970-06-25",75.02,51.98,0.00,0.00,
"CA001108462","1970-06-26",71.96,57.92,91.00,0.00,
"CA001108462","1970-06-27",62.06,53.06,3.00,0.00,
"CA001108462","1970-06-28",64.04,50.00,5.00,0.00,
"CA001108462","1970-06-29",62.96,51.08,0.00,0.00,
"CA001108462","1970-06-30",62.96,51.08,0.00,0.00,
"CA001108462","1970-07-01",69.08,55.94,0.00,0.00,
"CA001108462","1970-07-02",77.00,57.02,0.00,0.00,
"CA001108462","1970-07-03",75.02,55.94,0.00,0.00,
"CA001108462","1970-07-04",86.00,62.96,0.00,0.00,
"CA001108462","1970-07-05",82.94,51.08,0.00,0.00,
"CA001108462","1970-07-06",75.02,51.08,0.00,0.00,
"CA001108462","1970-07-07",77.00,57.02,0.00,0.00,
"CA001108462","1970-07-08",,,0.00,0.00,
"CA001108462","1970-07-09",73.94,55.94,0.00,0.00,
"CA001108462","1970-07-10",73.94,51.98,0.00,0.00,
"CA001108462","1970-07-11",71.96,55.04,0.00,0.00,
"CA001108462","1970-07-12",69.98,53.96,0.00,0.00,
"CA001108462","1970-07-13",73.04,53.06,0.00,0.00,
"CA001108462","1970-07-14",78.08,53.06,0.00,0.00,
"CA001108462","1970-07-15",82.94,53.06,0.00,0.00,
"CA001108462","1970-07-16",71.96,51.08,0.00,0.00,
"CA001108462","1970-07-17",,,0.00,0.00,
"CA001108462","1970-07-18",,,0.00,0.00,
"CA001108462","1970-07-19",82.04,60.08,0.00,0.00,
"CA001108462","1970-07-20",73.94,57.02,0.00,0.00,
"CA001108462","1970-07-21",64.04,51.98,0.00,0.00,
"CA001108462","1970-07-22",71.06,50.00,0.00,0.00,
"CA001108462","1970-07-23",69.98,53.06,0.00,0.00,
"CA001108462","1970-07-24",69.08,55.04,66.00,0.00,
"CA001108462","1970-07-25",57.92,51.98,155.00,0.00,
"CA001108462","1970-07-26",66.02,51.08,56.00,0.00,
"CA001108462","1970-07-27",66.92,51.98,3.00,0.00,
"CA001108462","1970-07-28",69.98,51.98,102.00,0.00,
"CA001108462","1970-07-29",60.08,51.98,112.00,0.00,
"CA001108462","1970-07-30",66.92,53.96,0.00,0.00,
"CA001108462","1970-07-31",73.04,50.00,0.00,0.00,
"CA001108462","1970-08-01",75.02,53.06,0.00,0.00,
"CA001108462","1970-08-02",66.92,55.94,0.00,0.00,
"CA001108462","1970-08-03",73.04,55.04,0.00,0.00,
"CA001108462","1970-08-04",73.04,53.06,0.00,0.00,
"CA001108462","1970-08-05",73.04,57.92,0.00,0.00,
"CA001108462","1970-08-06",73.04,57.92,20.00,0.00,
"CA001108462","1970-08-07",69.98,55.94,0.00,0.00,
"CA001108462","1970-08-08",69.98,55.94,0.00,0.00,
"CA001108462","1970-08-09",71.96,51.08,0.00,0.00,
"CA001108462","1970-08-10",75.02,55.04,0.00,0.00,
"CA001108462","1970-08-11",82.94,57.02,0.00,0.00,
"CA001108462","1970-08-12",66.02,57.02,38.00,0.00,
"CA001108462","1970-08-13",69.98,57.92,0.00,0.00,
"CA001108462","1970-08-14",73.94,51.98,0.00,0.00,
"CA001108462","1970-08-15",80.06,55.04,0.00,0.00,
"CA001108462","1970-08-16",69.08,51.98,0.00,0.00,
"CA001108462","1970-08-17",71.06,48.92,0.00,0.00,
"CA001108462","1970-08-18",73.04,50.00,0.00,0.00,
"CA001108462","1970-08-19",73.94,51.08,0.00,0.00,
"CA001108462","1970-08-20",71.96,51.98,0.00,0.00,
"CA001108462","1970-08-21",73.94,51.98,0.00,0.00,
"CA001108462","1970-08-22",73.94,53.96,0.00,0.00,
"CA001108462","1970-08-23",69.08,53.96,5.00,0.00,
"CA001108462","1970-08-24",66.02,57.92,0.00,0.00,
"CA001108462","1970-08-25",62.06,57.92,0.00,0.00,
"CA001108462","1970-08-26",71.06,55.04,0.00,0.00,
"CA001108462","1970-08-27",68.00,53.96,15.00,0.00,
"CA001108462","1970-08-28",64.04,53.96,0.00,0.00,
"CA001108462","1970-08-29",73.94,48.92,0.00,0.00,
"CA001108462","1970-08-30",78.08,51.98,0.00,0.00,
"CA001108462","1970-08-31",73.94,51.08,0.00,0.00,
"CA001108462","1970-09-01",64.04,55.94,0.00,0.00,
"CA001108462","1970-09-02",66.02,51.08,236.00,0.00,
"CA001108462","1970-09-03",68.00,53.96,3.00,0.00,
"CA001108462","1970-09-04",66.02,48.92,3.00,0.00,
"CA001108462","1970-09-05",55.04,51.98,163.00,0.00,
"CA001108462","1970-09-06",59.00,51.98,66.00,0.00,
"CA001108462","1970-09-07",62.96,48.92,58.00,0.00,
"CA001108462","1970-09-08",64.94,46.94,0.00,0.00,
"CA001108462","1970-09-09",64.04,44.96,0.00,0.00,
"CA001108462","1970-09-10",64.04,44.96,0.00,0.00,
"CA001108462","1970-09-11",64.04,44.06,0.00,0.00,
"CA001108462","1970-09-12",62.06,44.96,0.00,0.00,
"CA001108462","1970-09-13",64.04,39.92,0.00,0.00,
"CA001108462","1970-09-14",64.94,51.98,0.00,0.00,
"CA001108462","1970-09-15",64.94,44.06,0.00,0.00,
"CA001108462","1970-09-16",69.08,51.08,211.00,0.00,
"CA001108462","1970-09-17",59.00,55.04,46.00,0.00,
"CA001108462","1970-09-18",69.08,53.06,46.00,0.00,
"CA001108462","1970-09-19",62.96,48.92,5.00,0.00,
"CA001108462","1970-09-20",62.96,46.94,0.00,0.00,
"CA001108462","1970-09-21",55.94,48.02,135.00,0.00,
"CA001108462","1970-09-22",62.96,50.00,0.00,0.00,
"CA001108462","1970-09-23",57.92,41.00,0.00,0.00,
"CA001108462","1970-09-24",59.00,41.00,0.00,0.00,
"CA001108462","1970-09-25",64.04,44.96,0.00,0.00,
"CA001108462","1970-09-26",71.06,46.04,0.00,0.00,
"CA001108462","1970-09-27",73.94,48.02,0.00,0.00,
"CA001108462","1970-09-28",73.94,50.00,0.00,0.00,
"CA001108462","1970-09-29",71.96,51.08,0.00,0.00,
"CA001108462","1970-09-30",64.04,51.08,0.00,0.00,
"CA001108462","1970-10-01",64.94,46.94,0.00,0.00,
"CA001108462","1970-10-02",73.94,48.02,0.00,0.00,
"CA001108462","1970-10-03",73.94,48.92,0.00,0.00,
"CA001108462","1970-10-04",55.04,53.06,25.00,0.00,
"CA001108462","1970-10-05",57.92,48.02,0.00,0.00,
"CA001108462","1970-10-06",60.08,39.02,0.00,0.00,
"CA001108462","1970-10-07",53.96,44.06,,0.00,
"CA001108462","1970-10-08",53.96,46.94,,0.00,
"CA001108462","1970-10-09",57.92,46.94,0.00,0.00,
"CA001108462","1970-10-10",53.96,50.00,41.00,0.00,
"CA001108462","1970-10-11",55.94,48.92,5.00,0.00,
"CA001108462","1970-10-12",57.02,42.08,0.00,0.00,
"CA001108462","1970-10-13",55.94,39.02,0.00,0.00,
"CA001108462","1970-10-14",60.98,39.92,0.00,0.00,
"CA001108462","1970-10-15",60.98,39.02,0.00,0.00,
"CA001108462","1970-10-16",60.98,39.92,0.00,0.00,
"CA001108462","1970-10-17",55.04,42.08,23.00,0.00,
"CA001108462","1970-10-18",55.04,48.02,20.00,0.00,
"CA001108462","1970-10-19",53.06,48.92,257.00,0.00,
"CA001108462","1970-10-20",55.04,46.04,18.00,0.00,
"CA001108462","1970-10-21",51.08,42.98,76.00,0.00,
"CA001108462","1970-10-22",48.92,44.96,249.00,0.00,
"CA001108462","1970-10-23",51.08,42.98,74.00,0.00,
"CA001108462","1970-10-24",53.06,39.02,0.00,0.00,
"CA001108462","1970-10-25",51.08,35.96,0.00,0.00,
"CA001108462","1970-10-26",50.00,33.08,0.00,0.00,
"CA001108462","1970-10-27",51.08,32.00,0.00,0.00,
"CA001108462","1970-10-28",57.92,35.96,0.00,0.00,
"CA001108462","1970-10-29",53.96,39.02,0.00,0.00,
"CA001108462","1970-10-30",55.94,33.08,0.00,0.00,
"CA001108462","1970-10-31",60.98,39.92,0.00,0.00,
"CA001108462","1970-11-01",60.08,39.02,0.00,0.00,
"CA001108462","1970-11-02",60.08,39.92,0.00,0.00,
"CA001108462","1970-11-03",62.06,37.04,0.00,0.00,
"CA001108462","1970-11-04",60.98,41.00,0.00,0.00,
"CA001108462","1970-11-05",51.98,42.08,104.00,0.00,
"CA001108462","1970-11-06",59.00,42.08,41.00,0.00,
"CA001108462","1970-11-07",51.98,46.94,132.00,0.00,
"CA001108462","1970-11-08",53.06,46.04,79.00,0.00,
"CA001108462","1970-11-09",55.04,42.98,0.00,0.00,
"CA001108462","1970-11-10",48.02,44.06,221.00,0.00,
"CA001108462","1970-11-11",46.94,42.98,89.00,0.00,
"CA001108462","1970-11-12",53.06,44.96,0.00,0.00,
"CA001108462","1970-11-13",51.08,41.00,0.00,0.00,
"CA001108462","1970-11-14",51.98,39.02,0.00,0.00,
"CA001108462","1970-11-15",55.04,39.02,130.00,0.00,
"CA001108462","1970-11-16",53.96,48.02,13.00,0.00,
"CA001108462","1970-11-17",51.98,42.08,0.00,0.00,
"CA001108462","1970-11-18",48.02,37.94,0.00,0.00,
"CA001108462","1970-11-19",48.92,39.92,0.00,0.00,
"CA001108462","1970-11-20",42.08,35.06,5.00,0.00,
"CA001108462","1970-11-21",35.96,24.08,0.00,0.00,
"CA001108462","1970-11-22",33.98,21.02,76.00,25.00,
"CA001108462","1970-11-23",46.94,26.96,183.00,0.00,
"CA001108462","1970-11-24",46.94,37.94,0.00,0.00,
"CA001108462","1970-11-25",42.08,30.92,0.00,0.00,
"CA001108462","1970-11-26",39.02,32.00,56.00,0.00,
"CA001108462","1970-11-27",37.94,32.00,23.00,0.00,
"CA001108462","1970-11-28",39.02,24.98,0.00,0.00,
"CA001108462","1970-11-29",35.06,28.04,41.00,25.00,
"CA001108462","1970-11-30",41.00,32.00,69.00,5.00,
"CA001108462","1970-12-01",42.08,32.00,13.00,0.00,
"CA001108462","1970-12-02",44.06,33.98,18.00,5.00,
"CA001108462","1970-12-03",44.06,33.08,10.00,0.00,
"CA001108462","1970-12-04",37.04,28.04,76.00,64.00,
"CA001108462","1970-12-05",46.94,30.92,168.00,0.00,
"CA001108462","1970-12-06",48.02,42.98,312.00,0.00,
"CA001108462","1970-12-07",48.02,41.00,15.00,0.00,
"CA001108462","1970-12-08",46.04,33.98,0.00,0.00,
"CA001108462","1970-12-09",39.92,28.94,71.00,0.00,
"CA001108462","1970-12-10",46.04,37.94,244.00,0.00,
"CA001108462","1970-12-11",44.06,37.04,0.00,0.00,
"CA001108462","1970-12-12",41.00,33.08,0.00,0.00,
"CA001108462","1970-12-13",44.06,33.98,66.00,0.00,
"CA001108462","1970-12-14",44.06,37.04,84.00,0.00,
"CA001108462","1970-12-15",46.04,39.02,152.00,0.00,
"CA001108462","1970-12-16",44.06,39.02,320.00,0.00,
"CA001108462","1970-12-17",42.98,35.96,3.00,0.00,
"CA001108462","1970-12-18",37.04,32.00,81.00,30.00,
"CA001108462","1970-12-19",35.06,32.00,104.00,91.00,
"CA001108462","1970-12-20",37.04,32.00,0.00,0.00,
"CA001108462","1970-12-21",33.98,24.98,0.00,0.00,
"CA001108462","1970-12-22",33.08,21.02,0.00,0.00,
"CA001108462","1970-12-23",37.04,28.04,0.00,0.00,
"CA001108462","1970-12-24",35.96,32.00,28.00,0.00,
"CA001108462","1970-12-25",37.94,33.98,0.00,0.00,
"CA001108462","1970-12-26",37.04,33.98,53.00,0.00,
"CA001108462","1970-12-27",42.08,33.08,0.00,0.00,
"CA001108462","1970-12-28",42.08,37.04,107.00,0.00,
"CA001108462","1970-12-29",44.06,35.96,366.00,102.00,
"CA001108462","1970-12-30",46.04,32.00,0.00,0.00,
"CA001108462","1970-12-31",42.98,35.96,0.00,0.00,
"CA001108462","1971-01-01",39.92,30.92,0.00,0.00,
"CA001108462","1971-01-02",39.92,28.94,0.00,0.00,
"CA001108462","1971-01-03",35.06,23.00,0.00,0.00,
"CA001108462","1971-01-04",37.04,24.98,0.00,0.00,
"CA001108462","1971-01-05",33.08,26.06,0.00,0.00,
"CA001108462","1971-01-06",33.98,28.04,25.00,0.00,
"CA001108462","1971-01-07",37.04,33.08,51.00,0.00,
"CA001108462","1971-01-08",41.00,33.98,66.00,0.00,
"CA001108462","1971-01-09",42.98,37.94,61.00,0.00,
"CA001108462","1971-01-10",39.92,33.08,89.00,89.00,
"CA001108462","1971-01-11",21.92,15.98,191.00,191.00,
"CA001108462","1971-01-12",26.06,15.98,254.00,254.00,
"CA001108462","1971-01-13",23.00,15.98,114.00,114.00,
"CA001108462","1971-01-14",39.92,19.94,229.00,229.00,
"CA001108462","1971-01-15",46.94,26.06,48.00,0.00,
"CA001108462","1971-01-16",42.08,37.94,114.00,0.00,
"CA001108462","1971-01-17",44.06,35.96,53.00,0.00,
"CA001108462","1971-01-18",51.08,39.92,79.00,0.00,
"CA001108462","1971-01-19",48.92,37.94,0.00,0.00,
"CA001108462","1971-01-20",44.06,32.00,10.00,0.00,
"CA001108462","1971-01-21",41.00,32.00,25.00,25.00,
"CA001108462","1971-01-22",35.96,30.92,43.00,0.00,
"CA001108462","1971-01-23",39.02,33.98,74.00,0.00,
"CA001108462","1971-01-24",41.00,35.06,20.00,0.00,
"CA001108462","1971-01-25",42.08,32.00,478.00,0.00,
"CA001108462","1971-01-26",46.04,33.08,46.00,0.00,
"CA001108462","1971-01-27",46.94,44.06,0.00,0.00,
"CA001108462","1971-01-28",46.04,42.08,5.00,0.00,
"CA001108462","1971-01-29",44.96,39.92,554.00,0.00,
"CA001108462","1971-01-30",48.02,42.08,112.00,0.00,
"CA001108462","1971-01-31",48.02,46.04,25.00,0.00,
"CA001108462","1971-02-01",44.06,42.08,0.00,0.00,
"CA001108462","1971-02-02",44.06,35.96,38.00,0.00,
"CA001108462","1971-02-03",39.92,32.00,236.00,152.00,
"CA001108462","1971-02-04",44.06,33.98,0.00,0.00,
"CA001108462","1971-02-05",42.08,30.92,0.00,0.00,
"CA001108462","1971-02-06",39.92,24.98,0.00,0.00,
"CA001108462","1971-02-07",42.98,26.06,0.00,0.00,
"CA001108462","1971-02-08",48.02,28.94,3.00,0.00,
"CA001108462","1971-02-09",46.94,33.98,196.00,0.00,
"CA001108462","1971-02-10",55.94,42.08,23.00,0.00,
"CA001108462","1971-02-11",46.94,44.06,81.00,0.00,
"CA001108462","1971-02-12",48.02,42.08,165.00,0.00,
"CA001108462","1971-02-13",50.00,44.06,213.00,0.00,
"CA001108462","1971-02-14",50.00,46.04,208.00,0.00,
"CA001108462","1971-02-15",46.94,41.00,10.00,0.00,
"CA001108462","1971-02-16",48.92,37.94,0.00,0.00,
"CA001108462","1971-02-17",42.98,33.98,36.00,0.00,
"CA001108462","1971-02-18",48.92,39.02,86.00,0.00,
"CA001108462","1971-02-19",48.92,33.98,0.00,0.00,
"CA001108462","1971-02-20",46.94,30.92,0.00,0.00,
"CA001108462","1971-02-21",46.94,37.04,71.00,0.00,
"CA001108462","1971-02-22",46.04,39.02,46.00,0.00,
"CA001108462","1971-02-23",44.06,41.00,69.00,0.00,
"CA001108462","1971-02-24",44.06,39.92,28.00,0.00,
"CA001108462","1971-02-25",42.98,35.06,0.00,0.00,
"CA001108462","1971-02-26",35.96,28.04,152.00,152.00,
"CA001108462","1971-02-27",37.94,28.94,84.00,0.00,
"CA001108462","1971-02-28",39.92,19.94,0.00,0.00,
"CA001108462","1971-03-01",37.94,21.92,114.00,114.00,
"CA001108462","1971-03-02",46.04,30.02,38.00,13.00,
"CA001108462","1971-03-03",42.98,32.00,5.00,0.00,
"CA001108462","1971-03-04",42.08,30.02,0.00,0.00,
"CA001108462","1971-03-05",41.00,28.94,41.00,0.00,
"CA001108462","1971-03-06",42.08,33.08,152.00,0.00,
"CA001108462","1971-03-07",44.96,37.04,3.00,0.00,
"CA001108462","1971-03-08",39.02,33.98,94.00,0.00,
"CA001108462","1971-03-09",42.08,33.98,117.00,0.00,
"CA001108462","1971-03-10",46.04,37.94,150.00,0.00,
"CA001108462","1971-03-11",44.96,37.94,124.00,0.00,
"CA001108462","1971-03-12",51.98,39.92,3.00,0.00,
"CA001108462","1971-03-13",51.08,32.00,,0.00,
"CA001108462","1971-03-14",50.00,33.98,,0.00,
"CA001108462","1971-03-15",48.92,35.06,0.00,0.00,
"CA001108462","1971-03-16",48.02,30.92,0.00,0.00,
"CA001108462","1971-03-17",48.02,28.04,0.00,0.00,
"CA001108462","1971-03-18",48.92,28.94,0.00,0.00,
"CA001108462","1971-03-19",53.06,32.00,0.00,0.00,
"CA001108462","1971-03-20",48.92,35.96,0.00,0.00,
"CA001108462","1971-03-21",50.00,30.02,91.00,0.00,
"CA001108462","1971-03-22",46.04,33.98,206.00,0.00,
"CA001108462","1971-03-23",55.04,41.00,114.00,0.00,
"CA001108462","1971-03-24",51.98,37.04,0.00,0.00,
"CA001108462","1971-03-25",51.98,33.08,30.00,0.00,
"CA001108462","1971-03-26",42.98,33.98,132.00,0.00,
"CA001108462","1971-03-27",48.92,35.96,124.00,0.00,
"CA001108462","1971-03-28",46.94,37.04,183.00,0.00,
"CA001108462","1971-03-29",55.94,39.02,25.00,0.00,
"CA001108462","1971-03-30",53.96,35.96,0.00,0.00,
"CA001108462","1971-03-31",53.96,33.08,0.00,0.00,
"CA001108462","1971-04-01",53.06,37.04,33.00,0.00,
"CA001108462","1971-04-02",55.94,37.04,0.00,0.00,
"CA001108462","1971-04-03",59.00,37.04,0.00,0.00,
"CA001108462","1971-04-04",60.08,35.06,0.00,0.00,
"CA001108462","1971-04-05",62.96,39.02,28.00,0.00,
"CA001108462","1971-04-06",48.92,44.96,46.00,0.00,
"CA001108462","1971-04-07",51.08,37.04,104.00,0.00,
"CA001108462","1971-04-08",50.00,41.00,,0.00,
"CA001108462","1971-04-09",46.04,39.02,,0.00,
"CA001108462","1971-04-10",46.04,35.96,130.00,0.00,
"CA001108462","1971-04-11",51.98,33.98,0.00,0.00,
"CA001108462","1971-04-12",62.06,35.96,0.00,0.00,
"CA001108462","1971-04-13",60.98,41.00,0.00,0.00,
"CA001108462","1971-04-14",48.92,42.08,94.00,0.00,
"CA001108462","1971-04-15",55.94,37.94,0.00,0.00,
"CA001108462","1971-04-16",57.92,35.06,0.00,0.00,
"CA001108462","1971-04-17",57.02,35.06,0.00,0.00,
"CA001108462","1971-04-18",51.98,39.92,0.00,0.00,
"CA001108462","1971-04-19",51.98,42.98,13.00,0.00,
"CA001108462","1971-04-20",55.04,44.06,8.00,0.00,
"CA001108462","1971-04-21",53.96,37.94,0.00,0.00,
"CA001108462","1971-04-22",48.92,42.08,94.00,0.00,
"CA001108462","1971-04-23",55.94,37.94,3.00,0.00,
"CA001108462","1971-04-24",57.92,42.98,0.00,0.00,
"CA001108462","1971-04-25",73.04,41.00,0.00,0.00,
"CA001108462","1971-04-26",71.06,46.94,0.00,0.00,
"CA001108462","1971-04-27",53.06,48.02,20.00,0.00,
"CA001108462","1971-04-28",51.98,44.06,5.00,0.00,
"CA001108462","1971-04-29",53.96,42.98,5.00,0.00,
"CA001108462","1971-04-30",62.96,44.96,3.00,0.00,
"CA001108462","1971-05-01",64.94,50.00,0.00,0.00,
"CA001108462","1971-05-02",69.98,46.04,0.00,0.00,
"CA001108462","1971-05-03",68.00,46.94,0.00,0.00,
"CA001108462","1971-05-04",57.92,46.94,20.00,0.00,
"CA001108462","1971-05-05",48.02,44.96,58.00,0.00,
"CA001108462","1971-05-06",69.08,39.02,0.00,0.00,
"CA001108462","1971-05-07",71.96,46.04,0.00,0.00,
"CA001108462","1971-05-08",60.08,46.04,0.00,0.00,
"CA001108462","1971-05-09",62.96,46.94,0.00,0.00,
"CA001108462","1971-05-10",62.96,44.96,0.00,0.00,
"CA001108462","1971-05-11",80.96,48.02,0.00,0.00,
"CA001108462","1971-05-12",60.08,55.04,13.00,0.00,
"CA001108462","1971-05-13",55.94,44.96,25.00,0.00,
"CA001108462","1971-05-14",57.02,39.92,0.00,0.00,
"CA001108462","1971-05-15",60.08,42.98,64.00,0.00,
"CA001108462","1971-05-16",53.96,44.06,0.00,0.00,